Telluride, CO

8:52 AM MST on December 13, 2019 (GMT -0700)
Telluride Regional

Weather History for KTEX - October, 2019

Change the Weather History Date:

Thursday, October 10, 2019

  Actual Average Record
Temperature  
Mean Temperature 38 °F -  
Max Temperature 50 °F 53 °F 66 °F (1996)
Min Temperature 26 °F 33 °F 23 °F (2017)
Degree Days  
Heating Degree Days 27    
Moisture  
Dew Point 13 °F    
Average Humidity 50    
Maximum Humidity 100    
Minimum Humidity 12    
Precipitation  
Precipitation 0.00 in - - ()
Sea Level Pressure  
Sea Level Pressure 30.03 in    
Wind  
Wind Speed 13 mph (West)    
Max Wind Speed 20 mph    
Max Gust Speed 29 mph    
Visibility 10 miles    
Events      
Averages and records for this station are not official NWS values.
T = Trace of Precipitation, MM = Missing Value Source: NWS Daily Summary

Daily Weather History Graph

Daily Weather History Graph

Search for Another Location

Airport or City:

Astronomy

Oct. 10, 2019 Rise Set
Actual Time 7:15 AM MDT 6:41 PM MDT
Civil Twilight 6:48 AM MDT 7:07 PM MDT
Nautical Twilight 6:18 AM MDT 7:38 PM MDT
Astronomical Twilight 5:47 AM MDT 8:08 PM MDT
Moon 5:40 PM MDT (10/10) 4:06 AM MDT (10/10)
Length of Visible Light 12h 18m
Length of Day
11h 26m
Waxing Gibbous, 91% of the Moon is Illuminated
Oct 10
Waxing Gibbous
Oct 13
Full
Oct 21
Last Quarter
Oct 27
New
Nov 4
First Quarter

Hourly Weather History & Observations

Time (MDT) Temp. Windchill Dew Point Humidity Pressure Visibility Wind Dir Wind Speed Gust Speed Precip Events Conditions
12:15 AM 50.0 °F - 17.6 °F 28% 29.95 in 10.0 mi West 15.0 mph 20.7 mph N/A   Mostly Cloudy
12:35 AM 44.6 °F 37.8 °F 19.4 °F 37% 29.97 in 10.0 mi WNW 15.0 mph 27.6 mph N/A   Overcast
12:55 AM 42.8 °F 35.8 °F 19.4 °F 39% 29.97 in 10.0 mi WNW 13.8 mph 21.9 mph N/A   Mostly Cloudy
1:35 AM 41.0 °F 34.3 °F 21.2 °F 45% 29.97 in 10.0 mi West 11.5 mph 19.6 mph N/A   Mostly Cloudy
1:55 AM 41.0 °F 33.9 °F 21.2 °F 45% 29.97 in 10.0 mi West 12.7 mph - N/A   Mostly Cloudy
2:15 AM 39.2 °F 33.0 °F 21.2 °F 49% 29.97 in - West 9.2 mph - N/A   Mostly Cloudy
2:35 AM 39.2 °F 35.0 °F 21.2 °F 49% 29.95 in - West 5.8 mph - N/A   Overcast
2:55 AM 39.2 °F 33.6 °F 21.2 °F 49% 29.95 in - West 8.1 mph - N/A   Overcast
3:15 AM 37.4 °F 28.5 °F 19.4 °F 48% 29.95 in - West 15.0 mph 19.6 mph N/A   Overcast
3:35 AM 37.4 °F 30.3 °F 19.4 °F 48% 29.97 in - WNW 10.4 mph 18.4 mph N/A   Overcast
3:55 AM 35.6 °F 28.6 °F 17.6 °F 48% 29.97 in - West 9.2 mph 16.1 mph N/A   Overcast
4:15 AM 35.6 °F 25.9 °F 17.6 °F 48% 29.97 in - West 16.1 mph 19.6 mph N/A   Overcast
4:35 AM 33.8 °F 22.5 °F 15.8 °F 48% 29.99 in - West 19.6 mph 25.3 mph N/A   Overcast
4:55 AM 33.8 °F 24.3 °F 17.6 °F 52% 29.98 in - West 13.8 mph 18.4 mph N/A   Overcast
5:15 AM 32.0 °F 20.8 °F 17.6 °F 55% 29.99 in - West 17.3 mph 23.0 mph N/A   Overcast
5:35 AM 32.0 °F 21.6 °F 21.2 °F 64% 29.99 in - West 15.0 mph - N/A   Overcast
5:55 AM 30.2 °F 19.8 °F 26.6 °F 86% 29.99 in - West 13.8 mph - N/A   Overcast
6:15 AM 30.2 °F 20.2 °F 28.4 °F 93% 29.99 in - West 12.7 mph - N/A   Unknown
6:35 AM 30.2 °F 20.2 °F 28.4 °F 93% 30.00 in - West 12.7 mph - N/A   Unknown
6:55 AM 28.4 °F 19.1 °F 28.4 °F 100% 30.01 in - West 10.4 mph - N/A   Unknown
7:15 AM 28.4 °F 19.7 °F 28.4 °F 100% 30.00 in - West 9.2 mph - N/A   Unknown
7:35 AM 28.4 °F 22.2 °F 28.4 °F 100% 30.01 in - West 5.8 mph - N/A   Unknown
7:55 AM 28.4 °F 23.3 °F 28.4 °F 100% 30.01 in - WSW 4.6 mph - N/A   Unknown
8:15 AM 28.4 °F - 26.6 °F 93% 30.01 in - Calm Calm - N/A   Unknown
8:35 AM 28.4 °F - 26.6 °F 93% 30.01 in - Calm Calm - N/A   Unknown
8:55 AM 28.4 °F 21.2 °F 26.6 °F 93% 30.02 in - West 6.9 mph - N/A   Unknown
9:35 AM 26.6 °F 13.4 °F 19.4 °F 74% 30.03 in - WNW 18.4 mph 28.8 mph N/A   Unknown
9:55 AM 26.6 °F 14.7 °F 17.6 °F 69% 30.05 in 10.0 mi West 15.0 mph 25.3 mph N/A   Unknown
10:15 AM 26.6 °F 13.4 °F 12.2 °F 55% 30.05 in 10.0 mi West 18.4 mph 25.3 mph N/A   Unknown
10:35 AM 26.6 °F 14.7 °F 14.0 °F 59% 30.06 in 10.0 mi West 15.0 mph - N/A   Unknown
10:55 AM 28.4 °F 19.1 °F 12.2 °F 51% 30.06 in 10.0 mi West 10.4 mph - N/A   Unknown
11:15 AM 28.4 °F 19.7 °F 10.4 °F 47% 30.07 in 10.0 mi West 9.2 mph - N/A   Unknown
11:30 AM 30.2 °F 21.9 °F 10.4 °F 44% 30.07 in 10.0 mi West 9.2 mph - N/A   Unknown
11:55 AM 32.0 °F 23.0 °F 10.4 °F 41% 30.07 in 10.0 mi WSW 11.5 mph 16.1 mph N/A   Unknown
12:15 PM 32.0 °F 21.6 °F 10.4 °F 41% 30.08 in 10.0 mi West 15.0 mph 23.0 mph N/A   Unknown
12:35 PM 32.0 °F 22.5 °F 8.6 °F 38% 30.08 in 10.0 mi West 12.7 mph 21.9 mph N/A   Unknown
12:55 PM 32.0 °F 21.6 °F 5.0 °F 32% 30.08 in 10.0 mi West 15.0 mph - N/A   Unknown
1:15 PM 32.0 °F 21.2 °F 3.2 °F 30% 30.08 in 10.0 mi West 16.1 mph 21.9 mph N/A   Unknown
1:35 PM 32.0 °F 22.5 °F 1.4 °F 27% 30.08 in 10.0 mi West 12.7 mph 19.6 mph N/A   Unknown
1:55 PM 33.8 °F 24.3 °F -5.8 °F 18% 30.08 in 10.0 mi West 13.8 mph 20.7 mph N/A   Unknown
2:15 PM 33.8 °F 25.3 °F -7.6 °F 17% 30.08 in 10.0 mi West 11.5 mph 20.7 mph N/A   Unknown
2:35 PM 33.8 °F 24.8 °F -7.6 °F 17% 30.08 in 10.0 mi West 12.7 mph - N/A   Unknown
2:55 PM 33.8 °F 24.3 °F -7.6 °F 17% 30.09 in 10.0 mi West 13.8 mph - N/A   Unknown
3:15 PM 33.8 °F 23.9 °F -14.8 °F 12% 30.09 in 10.0 mi West 15.0 mph 19.6 mph N/A   Unknown
3:35 PM 33.8 °F 24.8 °F -7.6 °F 17% 30.10 in - West 12.7 mph 19.6 mph N/A   Unknown
3:55 PM 33.8 °F 23.9 °F -7.6 °F 17% 30.10 in - West 15.0 mph 21.9 mph N/A   Unknown
4:15 PM 32.0 °F 21.6 °F -9.4 °F 17% 30.10 in - West 15.0 mph 23.0 mph N/A   Unknown
4:35 PM 32.0 °F 21.2 °F -11.2 °F 15% 30.12 in - West 16.1 mph 23.0 mph N/A   Unknown
4:55 PM 32.0 °F 22.1 °F -5.8 °F 20% 30.12 in - West 13.8 mph - N/A   Unknown
5:15 PM 32.0 °F 21.6 °F -4.0 °F 21% 30.14 in - West 15.0 mph 19.6 mph N/A   Unknown
5:55 PM - - - N/A% 30.14 in - North - - N/A   Unknown